This is the latest recevied weather packets stored in our database for station/object CT1ETE-13. If no packets are shown the sender has not sent any weather packets the latest 10 day(s).
| Time | Temp. | Humidity | Pressure | Rain* | Wind** | Luminosity | Snow |
|---|---|---|---|---|---|---|---|
| 1777509870 | 13.33° C | 84% | 1012.8 hPa | 0 mm | - | - | - |
| 1777508970 | 13.33° C | 81% | 1012.8 hPa | 0 mm | - | - | - |
| 1777508070 | 13.33° C | 82% | 1012.6 hPa | 0 mm | - | - | - |
| 1777507167 | 13.33° C | 82% | 1012.5 hPa | 0 mm | - | - | - |
| 1777506265 | 13.33° C | 83% | 1012.4 hPa | 0 mm | - | - | - |
| 1777505363 | 13.33° C | 83% | 1012.1 hPa | 0 mm | - | - | - |
| 1777504463 | 13.33° C | 83% | 1012 hPa | 0 mm | - | - | - |
| 1777503562 | 13.33° C | 82% | 1012 hPa | 0 mm | - | - | - |
| 1777502720 | 13.33° C | 81% | 1011.9 hPa | 0 mm | - | - | - |
| 1777501817 | 13.33° C | 83% | 1011.7 hPa | 0 mm | - | - | - |
| 1777500916 | 13.33° C | 82% | 1011.5 hPa | 0 mm | - | - | - |
| 1777499955 | 13.33° C | 82% | 1011.5 hPa | 0 mm | - | - | - |
| 1777499053 | 13.89° C | 81% | 1011.5 hPa | 0 mm | - | - | - |
| 1777498217 | 13.89° C | 80% | 1011.3 hPa | 0 mm | - | - | - |
| 1777497252 | 13.89° C | 78% | 1011.2 hPa | 0 mm | - | - | - |
| 1777496351 | 13.89° C | 79% | 1011.1 hPa | 0 mm | - | - | - |
| 1777495449 | 13.89° C | 80% | 1010.8 hPa | 0 mm | - | - | - |
| 1777494549 | 13.89° C | 80% | 1010.6 hPa | 0 mm | - | - | - |
| 1777493649 | 13.89° C | 81% | 1010.3 hPa | 0 mm | - | - | - |
| 1777492750 | 14.44° C | 81% | 1010.1 hPa | 0 mm | - | - | - |
| 1777491849 | 14.44° C | 81% | 1009.8 hPa | 0 mm | - | - | - |
| 1777491009 | 14.44° C | 82% | 1009.5 hPa | 0 mm | - | - | - |
| 1777490048 | 14.44° C | 83% | 1009.3 hPa | 0 mm | - | - | - |
| 1777489145 | 14.44° C | 82% | 1009 hPa | 0 mm | - | - | - |
| 1777488303 | 14.44° C | 82% | 1008.7 hPa | 0 mm | - | - | - |
* Rain latest hour (hover to see other rain measurements)
** Current wind speed in m/s (hover to see current wind gust speed)